User: anonymous   Login
Location: *
(17.3280°S, 114.7300°W)
Time: 19:14:59
(UTC+00:00)
Language:

Cosmos 1455 - Orbit

View from above orbital plane
View from above orbital plane
View from above satellite
View from above satellite

Ground track
Ground track

The orbit data is extracted from the following two-line orbital elements,

1 14032U 83037A   20304.26706125 +.00000713 +00000-0 +32962-4 0  9996
2 14032 082.5130 310.2169 0015790 323.0246 036.9898 15.18430250047884
Epoch (UTC): 30 October 2020 06:24:34
Eccentricity: 0.0015790
inclination: 82.5130°
perigee height: 500 km
apogee height: 521 km
right ascension of ascending node: 310.2169°
argument of perigee: 323.0246°
revolutions per day: 15.18430250
mean anomaly at epoch: 36.9898°
orbit number at epoch: 4788

The dashed part of the orbit path shows where the satellite is in the earth's shadow,  

DLR